Freeport, IL

1:16 PM CDT on May 28, 2017 (GMT -0500)
Albertus

Weather History for KFEP - April, 2013

Change the Weather History Date:

Friday, April 5, 2013

  Actual Average Record
Temperature  
Mean Temperature 42 °F -  
Max Temperature 53 °F 51 °F 77 °F (2005)
Min Temperature 33 °F 32 °F 16 °F (1975)
Degree Days  
Heating Degree Days 23    
Moisture  
Dew Point 26 °F    
Average Humidity 56    
Maximum Humidity 84    
Minimum Humidity 25    
Precipitation  
Precipitation 0.00 in - - ()
Sea Level Pressure  
Sea Level Pressure 30.16 in    
Wind  
Wind Speed 7 mph (NE)    
Max Wind Speed 16 mph    
Max Gust Speed 22 mph    
Visibility 10 miles    
Events      
Averages and records for this station are not official NWS values.
T = Trace of Precipitation, MM = Missing Value Source: NWS Daily Summary

Daily Weather History Graph

Daily Weather History Graph

Search for Another Location

Airport or City:

Trip Planner

Search our weather history database for the weather conditions in past years. The results will help you decide how hot, cold, wet, or windy it might be!

Date:

Astronomy

Apr. 05, 2013 Rise Set
Actual Time 6:33 AM CDT 7:28 PM CDT
Civil Twilight 6:05 AM CDT 7:57 PM CDT
Nautical Twilight 5:31 AM CDT 8:31 PM CDT
Astronomical Twilight 4:55 AM CDT 9:06 PM CDT
Moon 3:46 AM CDT (4/5) 2:48 PM CDT (4/5)
Length of Visible Light 13h 52m
Length of Day
12h 55m
Waning Crescent, 23% of the Moon is Illuminated
Apr 5
Waning Crescent
Apr 10
New
Apr 18
First Quarter
Apr 25
Full
May 2
Last Quarter

Hourly Weather History & Observations

Time (CDT) Temp. Windchill Dew Point Humidity Pressure Visibility Wind Dir Wind Speed Gust Speed Precip Events Conditions
12:15 AM 41.2 °F 35.0 °F 32.9 °F 72% 30.07 in 10.0 mi NW 10.4 mph - N/A   Clear
12:35 AM 40.5 °F 34.6 °F 32.0 °F 72% 30.07 in 10.0 mi NW 9.2 mph - N/A   Clear
12:55 AM 38.7 °F 32.9 °F 32.0 °F 77% 30.07 in 10.0 mi NW 8.1 mph - N/A   Clear
1:15 AM 38.7 °F 34.3 °F 32.4 °F 78% 30.08 in 10.0 mi NW 5.8 mph - N/A   Clear
1:35 AM 36.1 °F 29.9 °F 30.6 °F 80% 30.08 in 10.0 mi NW 8.1 mph - N/A   Clear
1:55 AM 36.1 °F 29.9 °F 30.4 °F 80% 30.08 in 10.0 mi NW 8.1 mph - N/A   Clear
2:15 AM 36.1 °F 29.3 °F 30.7 °F 81% 30.08 in 10.0 mi NW 9.2 mph - N/A   Clear
2:35 AM 36.1 °F 29.3 °F 30.7 °F 81% 30.08 in 10.0 mi NW 9.2 mph - N/A   Clear
2:55 AM 35.4 °F 28.4 °F 30.2 °F 81% 30.08 in 10.0 mi NW 9.2 mph - N/A   Clear
3:15 AM 36.1 °F 29.9 °F 30.4 °F 80% 30.09 in 10.0 mi NW 8.1 mph - N/A   Clear
3:35 AM 36.1 °F 30.6 °F 29.1 °F 76% 30.10 in 10.0 mi NNW 6.9 mph - N/A   Clear
3:55 AM 36.1 °F 30.6 °F 29.3 °F 76% 30.11 in 10.0 mi NW 6.9 mph - N/A   Clear
4:15 AM 35.4 °F 31.5 °F 28.9 °F 77% 30.12 in 10.0 mi NNW 4.6 mph - N/A   Clear
4:35 AM 34.2 °F 30.0 °F 28.2 °F 79% 30.13 in 10.0 mi North 4.6 mph - N/A   Clear
4:55 AM 33.8 °F 28.6 °F 28.0 °F 79% 30.14 in 10.0 mi North 5.8 mph - N/A   Clear
5:15 AM 33.8 °F 29.6 °F 28.0 °F 79% 30.14 in 10.0 mi North 4.6 mph - N/A   Clear
5:35 AM 33.8 °F 30.8 °F 27.5 °F 78% 30.16 in 10.0 mi North 3.5 mph - N/A   Clear
5:55 AM 33.8 °F 30.8 °F 27.7 °F 78% 30.16 in 10.0 mi North 3.5 mph - N/A   Clear
6:15 AM 33.8 °F - 27.5 °F 78% 30.17 in 10.0 mi Calm Calm - N/A   Clear
6:35 AM 33.8 °F - 27.9 °F 79% 30.18 in 10.0 mi Calm Calm - N/A   Clear
6:55 AM 33.8 °F - 28.4 °F 81% 30.19 in 10.0 mi Calm Calm - N/A   Clear
7:15 AM 33.1 °F - 28.8 °F 84% 30.20 in 10.0 mi Calm Calm - N/A   Clear
7:35 AM 33.8 °F 30.8 °F 29.3 °F 84% 30.20 in 10.0 mi North 3.5 mph - N/A   Clear
7:55 AM 35.2 °F 31.2 °F 29.8 °F 81% 30.21 in 10.0 mi North 4.6 mph - N/A   Clear
8:55 AM 38.8 °F 32.6 °F 29.3 °F 69% 30.23 in 10.0 mi NNE 9.2 mph - N/A   Clear
9:35 AM 41.2 °F 34.5 °F 28.0 °F 60% 30.23 in 10.0 mi NNE 11.5 mph - N/A   Clear
9:55 AM 41.5 °F 35.0 °F 25.7 °F 53% 30.23 in 10.0 mi NE 11.5 mph - N/A   Clear
10:15 AM 43.5 °F 38.9 °F 27.3 °F 53% 30.25 in 10.0 mi NE 8.1 mph - N/A   Clear
10:35 AM 43.7 °F 37.7 °F 25.7 °F 49% 30.25 in 10.0 mi ENE 11.5 mph - N/A   Clear
10:55 AM 44.2 °F 38.8 °F 25.0 °F 47% 30.25 in 10.0 mi NE 10.4 mph - N/A   Clear
11:15 AM 44.8 °F 39.9 °F 25.2 °F 46% 30.25 in 10.0 mi NE 9.2 mph - N/A   Clear
11:35 AM 45.0 °F 42.6 °F 23.4 °F 43% 30.24 in 10.0 mi ENE 4.6 mph - N/A   Clear
11:55 AM 45.9 °F 40.0 °F 25.2 °F 44% 30.23 in 10.0 mi ENE 12.7 mph - N/A   Clear
12:15 PM 46.4 °F 42.9 °F 23.5 °F 41% 30.24 in 10.0 mi NNE 6.9 mph - N/A   Clear
12:35 PM 46.4 °F 42.9 °F 20.5 °F 36% 30.23 in 10.0 mi NE 6.9 mph - N/A   Clear
12:55 PM 46.8 °F - 19.6 °F 34% 30.21 in 10.0 mi NE 8.1 mph - N/A   Clear
1:15 PM 48.4 °F - 22.5 °F 36% 30.20 in 10.0 mi NNE 9.2 mph - N/A   Clear
1:35 PM 50.4 °F - 19.9 °F 30% 30.21 in 10.0 mi NE 5.8 mph - N/A   Clear
1:55 PM 48.4 °F - 20.5 °F 33% 30.19 in 10.0 mi East 5.8 mph - N/A   Clear
2:15 PM 50.2 °F - 18.5 °F 29% 30.18 in 10.0 mi NE 4.6 mph - N/A   Clear
2:35 PM 50.5 °F - 19.8 °F 30% 30.19 in 10.0 mi Calm Calm - N/A   Clear
2:55 PM 51.4 °F - 19.6 °F 29% 30.18 in 10.0 mi Calm Calm - N/A   Clear
3:15 PM 50.9 °F - 19.0 °F 28% 30.17 in 10.0 mi SSE 5.8 mph - N/A   Clear
3:35 PM 51.6 °F - 19.4 °F 28% 30.16 in 10.0 mi ENE 4.6 mph - N/A   Clear
3:55 PM 51.8 °F - 19.4 °F 28% 30.16 in 10.0 mi East 3.5 mph - N/A   Clear
4:15 PM 51.4 °F - 18.3 °F 27% 30.16 in 10.0 mi ESE 3.5 mph - N/A   Clear
4:35 PM 51.4 °F - 18.7 °F 28% 30.16 in 10.0 mi ESE 4.6 mph - N/A   Clear
4:55 PM 51.3 °F - 16.5 °F 25% 30.16 in 10.0 mi Calm Calm - N/A   Clear
5:15 PM 51.4 °F - 19.0 °F 28% 30.16 in 10.0 mi East 4.6 mph - N/A   Scattered Clouds
5:35 PM 51.3 °F - 20.3 °F 30% 30.15 in 10.0 mi East 3.5 mph - N/A   Mostly Cloudy
5:55 PM 51.1 °F - 20.1 °F 30% 30.15 in 10.0 mi Calm Calm - N/A   Mostly Cloudy
6:15 PM 50.4 °F - 21.6 °F 32% 30.15 in 10.0 mi ENE 4.6 mph - N/A   Mostly Cloudy
6:35 PM 49.3 °F - 22.1 °F 34% 30.15 in 10.0 mi ENE 5.8 mph - N/A   Mostly Cloudy
6:55 PM 48.4 °F - 23.9 °F 38% 30.15 in 10.0 mi ENE 5.8 mph - N/A   Mostly Cloudy
7:15 PM 47.5 °F - 26.6 °F 44% 30.14 in 10.0 mi East 5.8 mph - N/A   Overcast
7:35 PM 47.1 °F - 28.8 °F 49% 30.13 in 10.0 mi East 6.9 mph - N/A   Overcast
7:55 PM 46.6 °F - 29.3 °F 51% 30.11 in 10.0 mi East 6.9 mph - N/A   Overcast
8:15 PM 46.4 °F 41.9 °F 30.2 °F 53% 30.10 in 10.0 mi East 9.2 mph - N/A   Overcast
8:35 PM 46.0 °F 39.6 °F 31.1 °F 56% 30.09 in 10.0 mi East 15.0 mph - N/A   Light Drizzle
8:55 PM 44.6 °F 37.4 °F 32.0 °F 61% 30.12 in 10.0 mi East 16.1 mph 21.9 mph N/A   Scattered Clouds
9:15 PM 42.1 °F 34.5 °F 29.8 °F 62% 30.13 in 10.0 mi East 15.0 mph - N/A   Clear
9:35 PM 41.2 °F 33.7 °F 29.8 °F 64% 30.13 in 10.0 mi East 13.8 mph 18.4 mph N/A   Clear
9:55 PM 41.0 °F 34.3 °F 30.2 °F 65% 30.14 in 10.0 mi East 11.5 mph - N/A   Scattered Clouds
10:15 PM 39.9 °F 33.4 °F 29.8 °F 67% 30.14 in 10.0 mi East 10.4 mph - N/A   Mostly Cloudy
10:55 PM 38.7 °F 30.5 °F 28.6 °F 67% 30.12 in 10.0 mi East 13.8 mph - N/A   Scattered Clouds
11:15 PM 38.7 °F 30.1 °F 25.7 °F 60% 30.11 in 10.0 mi East 15.0 mph - N/A   Mostly Cloudy
11:35 PM 38.7 °F 31.8 °F 23.0 °F 53% 30.12 in 10.0 mi East 10.4 mph - N/A   Overcast